AFL1321 ULMM-UUEE

Flight info

Callsign AFL1321
Flight time N/A
Altitude 35000
Route ASGOR2P ASGOR T693 PILAN P65 ROMTA ROMTA3F
Aircraft A321/M-SDE3FGHIRWY/LB1

Departure

Time 2026-04-27 15:45
Airport Emperor Nicholas II Murmansk Airport (ULMM)

Arrival

Time N/A
Airport Sheremetyevo International Airport (UUEE)
Time Latitude Longitude Altitude Speed Heading
2026-04-27 15:21 68.78395 32.75686 254 ft 0 kts 326°
2026-04-27 15:37 68.78414 32.75650 254 ft 4 kts 326°
2026-04-27 15:37 68.78430 32.75602 254 ft 3 kts 294°
2026-04-27 15:38 68.78424 32.75516 254 ft 5 kts 247°
2026-04-27 15:38 68.78410 32.75450 254 ft 3 kts 238°
2026-04-27 15:38 68.78401 32.75410 254 ft 5 kts 237°
2026-04-27 15:38 68.78380 32.75321 254 ft 5 kts 237°
2026-04-27 15:39 68.78363 32.75248 254 ft 4 kts 237°
2026-04-27 15:39 68.78353 32.75204 254 ft 0 kts 238°
2026-04-27 15:39 68.78350 32.75191 254 ft 4 kts 238°
2026-04-27 15:40 68.78315 32.75047 255 ft 14 kts 233°
2026-04-27 15:40 68.78210 32.75059 254 ft 22 kts 145°
2026-04-27 15:40 68.78058 32.75349 252 ft 28 kts 147°
2026-04-27 15:40 68.77899 32.75638 254 ft 27 kts 146°
2026-04-27 15:41 68.77732 32.75949 252 ft 31 kts 146°
2026-04-27 15:41 68.77564 32.76262 253 ft 28 kts 146°
2026-04-27 15:41 68.77443 32.76576 253 ft 22 kts 101°
2026-04-27 15:41 68.77444 32.76969 254 ft 19 kts 99°
2026-04-27 15:42 68.77394 32.77121 254 ft 4 kts 143°
2026-04-27 15:42 68.77388 32.77132 254 ft 2 kts 149°
2026-04-27 15:42 68.77368 32.77152 254 ft 3 kts 166°
2026-04-27 15:42 68.77352 32.77153 254 ft 2 kts 184°
2026-04-27 15:43 68.77339 32.77141 254 ft 3 kts 202°
2026-04-27 15:43 68.77325 32.77111 254 ft 2 kts 221°
2026-04-27 15:43 68.77312 32.77064 254 ft 5 kts 234°
2026-04-27 15:43 68.77290 32.76967 253 ft 6 kts 241°
2026-04-27 15:44 68.77279 32.76845 252 ft 7 kts 269°
2026-04-27 15:44 68.77298 32.76756 253 ft 5 kts 319°
2026-04-27 15:44 68.77345 32.76667 253 ft 25 kts 325°
2026-04-27 15:44 68.77728 32.75961 252 ft 102 kts 326°
2026-04-27 15:45 68.78479 32.74584 352 ft 148 kts 327°
2026-04-27 15:45 68.79353 32.72989 998 ft 153 kts 326°
2026-04-27 15:45 68.80074 32.70848 1760 ft 164 kts 296°
2026-04-27 15:45 68.79978 32.67424 2063 ft 205 kts 249°
2026-04-27 15:46 68.78834 32.64586 2255 ft 246 kts 204°
2026-04-27 15:46 68.77044 32.64127 2631 ft 274 kts 172°
2026-04-27 15:46 68.75140 32.65307 3315 ft 286 kts 162°
2026-04-27 15:46 68.73219 32.66887 4194 ft 290 kts 161°
2026-04-27 15:47 68.71260 32.68398 5096 ft 294 kts 163°
2026-04-27 15:47 68.69260 32.69686 5999 ft 297 kts 167°
2026-04-27 15:47 68.67221 32.70753 6869 ft 299 kts 169°
2026-04-27 15:47 68.65165 32.71651 7739 ft 300 kts 171°
2026-04-27 15:48 68.63095 32.72456 8625 ft 300 kts 171°
2026-04-27 15:48 68.61019 32.73221 9499 ft 301 kts 172°
2026-04-27 15:48 68.58931 32.73980 10244 ft 306 kts 171°
2026-04-27 15:49 68.54398 32.75649 10680 ft 348 kts 171°
2026-04-27 15:49 68.51965 32.76480 11248 ft 355 kts 175°
2026-04-27 15:49 68.49484 32.76446 11924 ft 359 kts 182°
2026-04-27 15:49 68.46973 32.76161 12649 ft 362 kts 181°
2026-04-27 15:50 68.44443 32.75881 13369 ft 365 kts 181°
2026-04-27 15:50 68.41890 32.75611 14046 ft 369 kts 180°
2026-04-27 15:50 68.39318 32.75494 14666 ft 372 kts 179°
2026-04-27 15:50 68.36723 32.75523 15284 ft 375 kts 178°
2026-04-27 15:51 68.34102 32.75615 15908 ft 378 kts 177°
2026-04-27 15:51 68.31467 32.75731 16531 ft 380 kts 177°
2026-04-27 15:51 68.28811 32.75842 17156 ft 383 kts 178°
2026-04-27 15:51 68.26131 32.75924 17746 ft 386 kts 178°
2026-04-27 15:52 68.23432 32.75980 18335 ft 390 kts 178°
2026-04-27 15:52 68.20713 32.76017 18851 ft 392 kts 178°
2026-04-27 15:52 68.17980 32.76048 19357 ft 394 kts 178°
2026-04-27 15:52 68.15231 32.76076 19854 ft 396 kts 178°
2026-04-27 15:53 68.12466 32.76109 20325 ft 398 kts 178°
2026-04-27 15:53 68.09689 32.76150 20801 ft 400 kts 178°
2026-04-27 15:53 68.06898 32.76197 21265 ft 402 kts 178°
2026-04-27 15:53 68.04094 32.76245 21719 ft 404 kts 178°
2026-04-27 15:54 68.01273 32.76292 22173 ft 406 kts 178°
2026-04-27 15:54 67.98437 32.76341 22632 ft 409 kts 178°
2026-04-27 15:54 67.95587 32.76405 23108 ft 411 kts 178°
2026-04-27 15:54 67.92725 32.76507 23558 ft 413 kts 177°
2026-04-27 15:55 67.89840 32.76633 23938 ft 415 kts 177°
2026-04-27 15:55 67.87924 32.76720 24183 ft 417 kts 177°
2026-04-27 15:55 67.84024 32.76884 24669 ft 421 kts 177°
2026-04-27 15:55 67.81086 32.77006 25018 ft 423 kts 178°
2026-04-27 15:56 67.78136 32.77124 25386 ft 425 kts 178°
2026-04-27 15:56 67.75172 32.77234 25758 ft 427 kts 178°
2026-04-27 15:56 67.72192 32.77347 26108 ft 429 kts 178°
2026-04-27 15:56 67.69201 32.77466 26461 ft 431 kts 178°
2026-04-27 15:57 67.66196 32.77583 26805 ft 433 kts 179°
2026-04-27 15:57 67.63176 32.77690 27145 ft 435 kts 179°
2026-04-27 15:57 67.60143 32.77801 27480 ft 437 kts 179°
2026-04-27 15:57 67.57099 32.77920 27814 ft 438 kts 179°
2026-04-27 15:58 67.54044 32.78043 28144 ft 440 kts 179°
2026-04-27 15:58 67.50974 32.78165 28469 ft 442 kts 179°
2026-04-27 15:58 67.47894 32.78287 28786 ft 444 kts 178°
2026-04-27 15:58 67.44863 32.79111 29082 ft 445 kts 169°
2026-04-27 15:59 67.41854 32.81086 29358 ft 447 kts 164°
2026-04-27 15:59 67.38862 32.83360 29640 ft 449 kts 164°
2026-04-27 15:59 67.35859 32.85647 29902 ft 450 kts 164°
2026-04-27 15:59 67.32849 32.87931 30125 ft 452 kts 164°
2026-04-27 16:00 67.29824 32.90210 30307 ft 453 kts 164°
2026-04-27 16:00 67.27774 32.91745 30421 ft 454 kts 165°
2026-04-27 16:00 67.23744 32.94747 30672 ft 455 kts 165°
2026-04-27 16:00 67.20701 32.97006 30917 ft 455 kts 165°
2026-04-27 16:01 67.17662 32.99258 31153 ft 455 kts 165°
2026-04-27 16:01 67.14618 33.01516 31388 ft 455 kts 165°
2026-04-27 16:01 67.11580 33.03776 31610 ft 455 kts 165°
2026-04-27 16:01 67.08534 33.06031 31835 ft 455 kts 165°
2026-04-27 16:02 67.05493 33.08264 32062 ft 455 kts 165°
2026-04-27 16:02 67.02446 33.10489 32292 ft 455 kts 165°
2026-04-27 16:02 66.99399 33.12711 32528 ft 455 kts 165°
2026-04-27 16:02 66.96358 33.14930 32745 ft 455 kts 165°
2026-04-27 16:03 66.93312 33.17140 32962 ft 455 kts 165°
2026-04-27 16:03 66.90269 33.19341 33182 ft 455 kts 165°
2026-04-27 16:03 66.87223 33.21538 33399 ft 455 kts 165°
2026-04-27 16:03 66.84177 33.23733 33613 ft 455 kts 165°
2026-04-27 16:04 66.81133 33.25926 33819 ft 455 kts 165°
2026-04-27 16:04 66.78087 33.28124 34017 ft 455 kts 165°
2026-04-27 16:04 66.75040 33.30320 34186 ft 455 kts 165°
2026-04-27 16:04 66.71990 33.32506 34352 ft 455 kts 165°
2026-04-27 16:05 66.68942 33.34675 34518 ft 455 kts 165°
2026-04-27 16:05 66.65892 33.36847 34676 ft 455 kts 165°
2026-04-27 16:05 66.62842 33.39016 34850 ft 455 kts 165°
2026-04-27 16:06 66.56757 33.43312 34952 ft 451 kts 166°
2026-04-27 16:06 66.50732 33.47535 34947 ft 449 kts 166°
2026-04-27 16:07 66.44720 33.51746 34943 ft 448 kts 165°
2026-04-27 16:07 66.38713 33.55925 34947 ft 448 kts 166°
2026-04-27 16:08 66.32707 33.60045 34941 ft 447 kts 166°
2026-04-27 16:08 66.26706 33.64135 34939 ft 447 kts 166°
2026-04-27 16:09 66.20705 33.68229 34938 ft 447 kts 166°
2026-04-27 16:09 66.11708 33.74338 34935 ft 447 kts 166°
2026-04-27 16:10 65.99719 33.82375 34930 ft 446 kts 166°
2026-04-27 16:11 65.90726 33.88351 34927 ft 446 kts 166°
2026-04-27 16:12 65.81740 33.94272 34922 ft 446 kts 166°
2026-04-27 16:13 65.72764 34.00158 34917 ft 445 kts 166°
2026-04-27 16:13 65.63862 34.05926 34908 ft 433 kts 166°
2026-04-27 16:14 65.58166 34.09616 34904 ft 415 kts 166°
2026-04-27 16:14 65.52704 34.13137 34906 ft 398 kts 167°
2026-04-27 16:15 65.47475 34.16489 34903 ft 380 kts 167°
2026-04-27 16:15 65.42485 34.19675 34911 ft 367 kts 166°
2026-04-27 16:16 65.32244 34.26127 33949 ft 403 kts 167°
2026-04-27 16:17 65.26808 34.29563 34293 ft 403 kts 167°
2026-04-27 16:17 65.21394 34.32978 34756 ft 401 kts 167°
2026-04-27 16:18 65.15962 34.36370 34894 ft 408 kts 167°